Location: Valley Falls
(35.0169°N, 81.9753°W)
Time: 22:09:06
(UTC+00:00)

N. Korean satellite - Pass Details

Date: 02 December 2022
Orbit: 407 x 442 km, 97.3° (Epoch: 05 February)

Event Time Altitude Azimuth Distance (km) Brightness Sun altitude
Rises 22:59:40 0° 209° (SSW) 2,421 11.0 -9.0°
Reaches altitude 10° 23:02:39 10° 240° (WSW) 1,574 10.7 -9.6°
Maximum altitude 23:04:10 13° 267° (W) 1,433 10.2 -9.9°
Drops below altitude 10° 23:05:44 10° 294° (WNW) 1,595 9.9 -10.2°
Sets 23:08:48 0° 325° (NW) 2,489 10.4 -10.8°
